Regional Weather Roundup
Issued by NWS Wakefield, VA

Home | Current Version | Previous Version | Text Only | Print | Product List | Glossary Off
Versions: 1 2 3 4 5 6 7 8 9 10 11 12 13 14 15 16 17 18 19 20 21 22 23 24 25 26 27 28 29 30 31 32 33 34 35 36 37 38 39 40 41 42 43 44 45 46 47 48 49 50

000
ASUS41 KAKQ 251016
RWRAKQ

REGIONAL WEATHER ROUNDUP
NATIONAL WEATHER SERVICE WAKEFIELD VA
600 AM EDT SUN JUN 25 2017

Note: "fair" indicates few or no clouds below 12,000 feet with no
significant weather and/or obstructions to visibility. * = Denotes
station may not report precipitation (e.g., rain,snow,etc.),
thunder or fog.

VAZ042-051-052>054-056-251100-
NORTHERN VIRGINIA

CITY           SKY/WX    TMP DP  RH WIND       PRES   REMARKS
WASH NATIONAL  MOCLDY    72  61  68 CALM      29.99R
DULLES         PTCLDY    62  59  90 CALM      30.00R
FORT BELVOIR   MOCLDY    64  61  90 CALM      29.99R
QUANTICO       MOCLDY    68  65  90 NW6       30.00R
FREDERICKSBRG* MOCLDY    67  64  89 CALM      30.00R
STAFFORD*      CLOUDY    61  61 100 CALM      30.04R
WARRENTON      PTCLDY    60  57  89 CALM      30.00R
CULPEPER*      PTCLDY    61  61 100 CALM      30.02R
MANASSAS*      CLOUDY    63  62  97 CALM      30.01R
LEESBURG*      PTCLDY   N/A N/A N/A CALM      30.01R
WINCHESTER     MOCLDY    63  55  77 SW3       30.02R
FRONT ROYAL*   MOSUNNY   61  59  94 S5        30.02R
LURAY*         SUNNY     61  59  94 CALM      30.04R
$$

VAZ048-049-060>072-079>083-251100-
CENTRAL AND SOUTH CENTRAL VIRGINIA

CITY           SKY/WX    TMP DP  RH WIND       PRES   REMARKS
RICHMOND       PTCLDY    72  70  93 NW5       29.99R
CHESTERFIELD*  FAIR      69  66  90 NW7       30.00R
PETERSBURG*    CLEAR     68  68  99 CALM      30.01R
HANOVER        CLEAR     67  64  90 CALM      30.01R
TAPPAHANNOCK*  PTCLDY    68  68 100 CALM      30.00R
QUINTON*       FAIR      70  70 100 W3        29.98S
CHARLOTTSVILLE CLEAR     68  59  73 W6        30.02R
GORDONSVILLE*  SUNNY     60  59  97 CALM      30.01R
ORANGE*        CLEAR     59  57  94 CALM      30.01R
LOUISA*        PTCLDY    63  61  94 CALM      30.01R
BUMPASS*       PTSUNNY   64  64 100 CALM      30.01R
FARMVILLE*     PTCLDY    64  62  93 CALM      30.01R
CREWE*         FAIR      65  61  86 CALM      30.02R
FORT PICKETT*  FAIR     N/A N/A N/A W10       30.02R
CHASE CITY*    FAIR      68  67  99 CALM      30.03R
CLARKSVILLE*   FAIR      68  68 100 CALM      30.02R
SOUTH HILL*    MOCLDY    70  70 100 CALM      30.07R
LAWRENCEVILLE* FAIR      70  69  97 CALM      30.01R
EMPORIA*       MOCLDY    70  70 100 CALM      30.02R
$$

VAZ088>098-251100-
SOUTHEAST VIRGINIA

CITY           SKY/WX    TMP DP  RH WIND       PRES   REMARKS
NORFOLK        PTCLDY    74  71  91 SW8       29.99S
VIRGINIA BEACH PTCLDY    71  69  93 SW5       29.98S
NORFOLK NAVAL  PTCLDY    74  70  87 SW3       30.01R
WEST POINT*    PTCLDY    71  69  94 CALM      30.00R
SALUDA*        FAIR      72  72 100 W3        29.99R
NEWPORT NEWS   NOT AVBL
LANGLEY AFB    PTCLDY    73  71  93 SW5       29.99R
FORT EUSTIS    PTCLDY    73  70  92 W6        29.97S
WILLIAMSBURG*  CLEAR     73  73 100 CALM      30.00R
HR EXEC AP*    FAIR      70  66  88 CALM      29.98S
FRANKLIN*      CLOUDY    72  70  94 S3        30.01R
US460-WAKEFLD  MOCLDY    71  71 100 CALM      29.99S
$$

VAZ020-022-025-037-045-251100-
WEST CENTRAL AND SOUTHWEST VIRGINIA

CITY           SKY/WX    TMP DP  RH WIND       PRES   REMARKS
STAUNTON*      CLEAR     55  54  97 CALM      30.08R
WAYNESBORO*    SUNNY     56  56 100 S5        30.07R
HOT SPRINGS VA CLEAR     57  52  82 CALM      30.16R
LYNCHBURG      PTCLDY    59  57  93 CALM      30.05R
DANVILLE       FOG       67  67 100 CALM      30.04S VSB 1/2
SOUTH BOSTON*  CLOUDY    67  65  95 CALM      30.03R VSB 3/4
MARTINSVILLE   MOCLDY    60  59  97 CALM      30.10R
ROANOKE        MOCLDY    65  58  78 CALM      30.10R
BLACKSBURG     CLEAR     58  56  94 CALM      30.15R
DUBLIN*        PTCLDY    60  54  79 SW5       30.15R
MARION*        CLOUDY    58  55  89 CALM      30.19R
HILLSVILLE*    CLEAR     62  53  72 NW3       30.14S
RICHLANDS*     CLOUDY    61  57  87 W3        30.19R
WISE*          MOCLDY    61  54  77 NW6       30.21R
ABINGDON*      CLOUDY    66  59  77 NW7       30.16R
$$

MDZ021>025-VAZ099-100-251100-
SOUTHERN MARYLAND AND THE DELMARVA PENINSULA

CITY           SKY/WX    TMP DP  RH WIND       PRES   REMARKS
PATUXENT RIVER PTCLDY    70  62  76 SW3       29.98R
BAY BRIDGE APT CLOUDY    73  61  64 CALM      29.98R
LEONARDTOWN    PTCLDY    64  61  88 CALM      30.01R
DOVER          CLEAR     67  67 100 NW3       29.96R
GEORGETOWN     CLEAR     66  63  90 CALM      29.98R
EASTON         PTCLDY    68  64  88 CALM      30.02R
CAMBRIDGE      PTCLDY    64  64 100 CALM      29.98R
SALISBURY      CLEAR     66  64  93 CALM      29.98R
OCEAN CITY     CLEAR     66  65  96 CALM      29.98R
WALLOPS ISLAND PTCLDY    70  69  97 NW3       29.98R
ACCOMACK*      CLEAR     74  72  94 W6        29.98R
$$

NCZ012>017-030>032-251100-
NORTH CENTRAL AND EASTERN NORTH CAROLINA

CITY           SKY/WX    TMP DP  RH WIND       PRES   REMARKS
ROANOKE RAPIDS PTSUNNY   70  70 100 CALM      30.01R
RALEIGH        CLOUDY    70  69  97 CALM      30.03R
ELIZABETH CITY CLOUDY    73  73 100 W6        30.00R
AHOSKIE*         N/A     69  69  99 CALM      30.01R
EDENTON*       CLOUDY    75  73  92 CALM      30.01S
CURRITUCK*     CLOUDY   N/A N/A N/A W3        30.00R
KILL DEVIL HLS CLOUDY    74  74 100 W3        29.99R
MANTEO         CLOUDY    74  73  96 W6        30.01R
CAPE HATTERAS  MOCLDY    76  74  93 W8        30.01S
TARBORO*       NOT AVBL
GOLDSBORO      CLOUDY    73  73 100 W3        30.01R
WASHINGTON     CLOUDY   N/A N/A N/A CALM      30.01S
GREENVILLE     CLOUDY    72  72 100 CALM      30.04R
NEW BERN       CLOUDY    75  75 100 CALM      30.03R
WILMINGTON     CLOUDY    77  75  93 W5        30.02R
$$

VAZ048-251100-
ELSEWHERE

CITY           SKY/WX    TMP DP  RH WIND       PRES   REMARKS
HARRISBURG PA  PTCLDY    66  61  84 NW7       29.98R
BALTIMORE      MOCLDY    68  61  78 CALM      29.98R
ANNAPOLIS      MOCLDY    69  62  78 SW3       29.98R
ANDREWS AFB    PTCLDY    66  60  79 CALM      29.99R
PHILADELPHIA   PTCLDY    72  61  68 NW5       29.97R
HENDERSON NC     N/A     66  65  97 CALM      30.03R FOG
GREENSBORO     MOCLDY    69  69 100 N3        30.05R
ROCKY MOUNT    CLOUDY    70  70 100 S3        30.02R
$$

VAZ100-251100-
MARINE

STATION/POSITION TIME  TEMP    WIND        PRES    WAVE   SWELL
                       AIR SEA DIR/SP/G            HT/PER HT/PER
                 (UTC) (F)     (DEG/KT/KT) (MB)    (FT/S) (FT/S)
BRANDYWINE LGT   0948          350/  6/  8   N/A
CAPE MAY NJ      0948   74 71   CALM  /  1 1014.5R
LEWES DE         0948          270/  4/  5   N/A
15NM E FENWICK I 0950   69 67  280/  4/  6 1015.1R   3/ 8   3/ 8
WACHAPREAGUE VA  0948   74 82  260/  3/  6 1014.9R
THOMAS POINT MD  1000   73 78  280/  5/  5   N/A
GOOSES REEF MD   1000   77 78  340/ 10/ 10 1016.1    1
COVE POINT MD    0948   74     310/  4/  6 1016.1R
SOLOMONS ISLAND  0948   73 78  290/  3/  4   N/A
BISHOPS HEAD MD  0948   76 82  320/  6/  7 1015.6R
PINEY POINT MD   0948          360/  5/  5   N/A
POTOMAC MD       1000   77 78  330/  8/ 10 1014.5    1
CAMBRIDGE MD     0948   72 81              1015.8R
LEWISETTA VA     0948   74 78  260/  2/  3 1015.3R
RAPPAHANNOCK LGT 0948          280/ 14/ 15 1015.7R
STINGRAY PT      0950   76     310/ 12/ 14 1015.0R
YORK RVR RNG VA  0948   75     270/ 10/ 11 1015.6R
YORKTOWN VA      0948   73 78  250/  2/  4 1015.1R
JAMESTOWN VA     1000   73 83  240/  4/  6   N/A     0
DOMINION TERM VA 0948   74     270/  5/  6 1015.6R
KIPTOPEKE VA     0948          270/ 11/ 13   N/A
CHES BAY BRIDGE  0948   74 75  280/ 10/ 11 1015.3R
CAPE HENRY VA    0948   72     230/  5/  6   N/A
WILLOUBY STN VA  0948   74     260/  7/  8 1015.4R
S CRANEY ISL VA  0948   73      CALM  /  1 1015.5R
CAPE HENRY BUOY  1000      71                N/A     2/ 9
1ST LANDING BUOY 1000   75 75              1015.5    1/ 3
CAPE CHARLES BUO 0951      65                N/A     2/ 9
64NM E OF VA BCH 0950   73 72  270/  6/  8 1015.8R   4/ 7   3/ 7
DUCK PIER NC     0948   76 60  270/ 12/ 15 1015.4R
44100 DUCK FRF   0905      71                N/A     2/ 7
OREGON INLET NC  0936   76 78  250/  8/ 11 1015.7R
HATTERAS NC      0948   76 79  240/  8/ 12 1016.0R
DIAMOND SHLS NC  0950   79 80  240/ 19/ 23 1015.9R   6/ 7
CAPE LOOKOUT NC  1000   78     230/  8/ 11 1016.1R
$$



USA.gov is the U.S. government's official web portal to all federal, state and local government web resources and services.